Wind_Speed
60 60 57 53 53 53 53 52 51 50 50 51 52 53 52 49 45 43 40 37 37 39 39 36 33 33 33 34 35 36 37 37 38 39 40 39 39 39 37 35 32 29
60 60 59 56 53 52 53 55 54 53 53 53 54 54 54 50 47 45 42 38 38 39 39 39 36 34 33 33 34 36 37 38 39 40 41 40 40 39 37 34 31 29
61 59 59 58 54 49 48 52 55 56 56 56 55 55 53 50 48 47 44 40 39 39 38 39 39 36 35 34 33 35 37 39 40 41 41 41 40 39 37 34 30 28
60 59 59 59 57 53 51 52 53 56 57 57 56 53 51 50 49 48 46 41 40 38 36 39 41 39 38 37 35 34 36 39 41 42 42 41 40 39 37 34 30 27
61 60 59 60 60 60 58 55 54 56 58 56 54 51 50 51 50 48 46 42 40 38 36 39 42 41 40 39 36 35 36 39 41 42 43 41 40 39 37 35 31 27
60 60 60 61 62 61 60 58 57 58 56 53 51 49 49 51 51 48 45 42 40 38 37 40 43 43 42 40 38 36 37 39 41 42 43 42 40 38 37 34 31 28
57 59 60 61 61 61 60 59 59 57 54 52 51 49 50 51 50 47 45 43 41 39 39 41 43 43 42 41 39 38 37 39 41 42 42 42 40 37 36 34 31 28
57 58 59 60 60 60 59 58 58 56 54 53 51 50 50 50 48 46 45 44 42 41 41 42 44 43 42 41 40 39 39 40 42 42 42 42 40 36 35 34 31 28
62 60 59 59 59 59 59 57 56 56 55 54 51 50 50 49 48 46 46 45 44 43 42 42 43 43 42 41 40 40 40 41 42 42 42 42 40 36 34 34 31 27
67 65 62 60 59 59 58 57 57 56 56 55 52 50 50 48 48 47 46 46 45 45 44 43 43 43 42 42 41 41 41 42 43 43 42 42 40 36 34 33 30 27
70 68 67 64 62 61 59 58 57 55 55 55 53 51 49 48 48 48 47 47 47 47 46 44 43 43 42 42 42 41 42 42 42 42 42 42 39 35 34 33 30 27
72 69 67 66 65 64 62 59 57 55 56 55 53 51 50 49 49 49 48 49 49 48 46 45 44 43 43 43 42 42 42 42 42 41 41 41 38 35 34 34 30 27
73 71 68 66 65 65 64 61 58 56 57 56 52 51 50 50 49 50 50 50 50 49 47 46 45 44 43 43 43 43 42 42 41 40 41 40 37 34 34 34 30 27
74 72 70 67 65 65 65 63 59 57 58 56 52 51 51 50 50 51 51 51 50 49 48 47 46 46 45 44 44 43 43 42 40 40 40 39 35 34 35 34 29 26
77 74 71 69 67 66 65 63 60 60 60 57 54 53 52 52 52 52 52 51 51 50 49 48 48 47 46 45 45 44 43 42 40 40 40 38 35 34 35 34 29 26
77 76 73 71 69 67 66 64 63 63 62 59 56 55 54 54 54 53 53 52 52 50 49 49 49 49 47 46 46 46 45 42 40 41 40 36 34 35 35 33 29 26
74 76 75 72 70 69 67 66 66 65 62 60 58 56 56 56 56 55 55 55 53 51 50 50 50 49 48 47 47 47 45 42 41 41 40 36 35 36 35 32 28 26
71 73 74 74 72 70 69 68 67 65 63 61 59 58 58 58 58 57 57 55 52 51 51 51 51 50 49 48 47 47 45 43 42 42 39 36 36 36 35 31 27 26
70 70 71 72 72 70 70 69 68 66 64 62 61 60 60 60 59 58 56 54 53 52 52 52 51 51 50 48 47 47 45 43 43 42 38 37 36 36 34 29 26 26
70 69 69 70 71 71 70 69 67 66 64 63 62 61 60 59 58 56 54 53 53 53 53 53 53 52 51 48 47 46 44 43 43 41 38 37 37 36 33 28 25 26
68 67 67 67 68 68 68 67 65 64 64 62 60 59 59 58 57 54 54 54 54 54 54 53 54 53 50 48 46 45 44 44 43 39 37 37 37 36 31 27 25 26
64 65 65 65 65 65 65 65 63 63 63 62 60 60 59 58 57 56 56 56 55 54 54 54 54 52 50 47 45 44 44 44 41 38 37 37 37 35 30 26 25 27
63 64 64 63 61 61 62 63 63 63 63 62 61 60 60 59 58 57 56 55 54 53 53 54 52 50 49 46 43 44 45 43 40 37 37 37 36 34 30 26 26 27
63 63 62 61 59 58 59 62 64 64 63 62 60 59 58 58 56 54 53 51 51 52 51 51 50 49 47 44 43 45 44 41 39 38 37 37 36 33 30 28 27 28
62 62 61 59 57 57 59 61 63 64 63 61 58 56 55 54 52 51 49 48 48 49 48 48 49 48 44 42 44 45 42 40 39 38 37 36 35 33 30 29 28 29
60 60 59 57 56 57 59 60 61 60 59 57 55 53 52 50 49 48 46 46 46 47 47 48 48 45 43 43 44 43 41 39 39 38 36 35 34 33 31 30 30 30
Wind_Direction
221 225 229 231 232 234 236 238 241 244 248 253 258 262 266 268 270 272 275 278 280 281 282 281 280 282 286 290 295 299 302 306 310 313 314 314 313 312 313 314 313 311
220 224 228 231 233 236 240 242 242 245 249 254 259 262 265 267 268 270 274 276 278 280 282 283 283 283 285 288 293 298 302 306 310 313 314 313 311 310 311 312 311 308
220 224 227 230 230 232 238 243 244 246 250 254 258 261 264 266 268 271 273 274 275 277 280 283 284 285 286 288 292 297 302 306 310 312 314 312 310 309 309 310 309 305
219 223 227 229 229 229 232 239 244 247 250 253 256 259 263 266 269 271 273 273 273 275 277 280 283 286 288 290 292 297 302 306 309 312 312 311 309 307 308 309 307 303
221 223 226 228 230 230 233 237 242 246 250 252 255 259 262 266 269 271 272 272 272 273 274 277 282 286 289 291 293 296 302 306 309 311 311 309 307 306 306 307 306 301
223 224 226 229 232 233 235 237 240 245 249 252 255 258 260 263 267 269 271 271 271 271 272 275 280 284 287 290 292 296 302 306 308 310 309 306 305 304 304 305 303 299
224 226 227 230 233 235 236 239 242 246 249 251 254 256 259 261 264 267 269 270 270 271 272 275 279 283 286 290 292 297 302 305 307 308 307 304 302 302 302 303 301 297
225 227 228 230 232 236 237 239 242 246 249 251 253 256 258 260 262 265 267 268 270 271 273 276 279 282 285 289 293 297 302 305 306 306 304 301 300 301 301 301 300 295
227 227 229 230 232 236 238 240 242 245 248 251 252 254 256 259 261 263 265 268 270 271 273 275 278 281 284 288 292 297 301 304 305 304 301 298 298 299 300 300 298 293
228 228 230 231 233 236 238 241 242 244 247 249 250 252 255 257 260 262 264 267 268 270 271 273 275 279 283 287 292 296 300 303 303 301 298 295 296 298 299 299 296 291
229 230 231 232 234 237 239 241 242 242 245 247 249 251 253 256 259 261 264 266 267 268 269 270 272 277 282 286 291 296 299 301 300 297 295 293 295 297 298 298 295 289
229 231 231 232 234 236 238 240 240 241 244 246 247 250 253 255 258 260 263 264 264 266 269 270 272 277 282 286 291 295 297 297 295 293 291 291 293 295 297 297 294 287
229 230 231 232 233 235 236 238 239 241 242 244 247 250 253 255 257 260 262 262 262 265 269 270 273 278 282 286 291 293 294 293 292 290 288 288 291 293 295 296 292 285
230 229 230 231 232 234 235 237 239 241 242 245 248 251 253 255 257 259 259 258 261 266 269 271 275 279 282 286 290 292 293 291 289 288 286 286 289 292 293 294 290 281
231 230 230 231 232 233 234 237 240 241 243 247 249 251 253 255 257 257 255 256 262 267 270 273 276 279 282 286 290 292 291 289 288 286 284 285 289 290 291 292 287 277
232 232 231 231 232 233 234 237 239 242 245 247 249 251 252 254 256 255 254 258 263 266 270 273 276 279 283 287 291 291 289 288 287 285 283 285 288 289 290 289 283 274
233 232 233 232 232 233 235 237 239 242 245 247 248 250 252 254 256 255 255 259 263 266 270 274 276 280 284 287 290 289 287 287 286 283 282 285 287 288 288 286 279 271
234 233 233 234 233 234 235 237 239 242 244 246 248 250 251 253 255 255 257 260 263 267 271 274 277 280 284 287 288 286 284 285 283 281 282 285 286 286 287 282 274 268
234 233 234 235 235 236 235 236 238 241 244 246 248 249 251 252 254 255 258 261 264 268 271 274 278 280 283 285 285 282 282 282 280 279 282 285 285 285 284 278 269 266
233 234 234 235 237 238 238 238 239 241 244 245 247 248 250 252 254 256 259 262 265 268 272 275 278 280 282 282 280 279 280 278 276 278 282 284 284 283 280 272 265 265
232 234 235 236 237 239 241 242 242 243 244 246 247 248 250 252 255 257 260 263 265 268 272 274 277 279 279 277 276 277 277 274 274 278 282 283 282 280 275 267 262 264
230 234 236 237 238 240 242 245 245 245 246 247 248 249 251 253 255 257 259 262 265 268 271 273 275 276 275 274 273 274 272 271 273 278 280 280 278 275 269 262 260 263
230 233 235 237 239 240 241 244 246 247 247 247 248 249 251 253 255 257 260 263 266 268 270 271 272 272 271 271 271 270 269 270 274 277 278 277 274 270 264 258 257 260
229 232 235 237 238 239 240 241 243 245 247 248 249 250 252 254 257 259 262 264 266 267 268 269 268 268 269 269 268 267 267 271 275 276 276 274 269 265 260 256 256 259
227 231 234 235 237 239 240 241 242 244 246 249 251 253 254 257 259 261 263 264 264 265 265 265 265 266 267 266 264 265 268 272 275 275 273 270 265 262 258 255 255 258
227 230 233 234 235 237 238 241 243 244 247 249 252 254 256 258 260 261 262 262 262 263 263 263 263 264 264 262 263 265 268 272 273 273 270 266 262 260 257 255 256 258
Height
10730 10732 10734 10737 10739 10740 10742 10744 10745 10746 10747 10747 10747 10748 10748 10749 10750 10751 10753 10754 10754 10754 10754 10755 10756 10756 10756 10755 10753 10751 10750 10749 10748 10746 10745 10743 10741 10740 10739 10738 10737 10736
10725 10727 10730 10734 10736 10737 10738 10739 10741 10743 10743 10744 10744 10745 10744 10745 10746 10747 10749 10751 10751 10751 10750 10750 10752 10753 10753 10753 10751 10749 10747 10746 10745 10743 10741 10740 10738 10737 10737 10736 10735 10733
10720 10723 10726 10730 10733 10734 10734 10735 10737 10739 10740 10741 10742 10741 10741 10741 10741 10742 10744 10747 10748 10748 10747 10746 10747 10748 10749 10750 10749 10747 10745 10743 10742 10740 10738 10736 10735 10734 10733 10733 10733 10731
10716 10718 10721 10724 10727 10729 10730 10731 10734 10735 10736 10738 10738 10738 10738 10738 10737 10737 10739 10742 10744 10745 10745 10743 10743 10744 10745 10745 10746 10745 10743 10741 10739 10738 10736 10734 10732 10730 10729 10730 10730 10729
10710 10713 10715 10718 10721 10724 10726 10728 10730 10730 10732 10733 10734 10735 10735 10734 10733 10734 10735 10737 10740 10741 10742 10741 10740 10740 10741 10741 10742 10742 10740 10739 10737 10735 10733 10731 10730 10728 10726 10726 10726 10726
10705 10708 10710 10713 10716 10719 10722 10724 10725 10726 10728 10730 10730 10732 10732 10731 10730 10730 10731 10733 10734 10737 10738 10738 10737 10737 10737 10737 10738 10738 10737 10736 10734 10732 10730 10728 10727 10726 10724 10723 10722 10722
10702 10704 10706 10709 10712 10716 10719 10720 10721 10723 10725 10726 10727 10727 10728 10728 10728 10728 10728 10729 10729 10731 10733 10734 10734 10734 10733 10733 10733 10734 10734 10733 10731 10729 10727 10725 10724 10723 10722 10720 10720 10719
10696 10699 10702 10705 10708 10711 10714 10717 10718 10720 10721 10721 10722 10723 10724 10724 10725 10725 10725 10725 10725 10726 10728 10729 10730 10730 10730 10729 10729 10730 10730 10729 10728 10726 10724 10722 10721 10721 10719 10718 10717 10717
10691 10694 10697 10701 10704 10706 10709 10712 10714 10715 10715 10716 10718 10719 10720 10720 10721 10722 10722 10722 10721 10722 10723 10724 10725 10726 10726 10726 10726 10726 10726 10726 10724 10723 10721 10719 10718 10718 10717 10715 10715 10714
10685 10689 10693 10697 10700 10703 10705 10707 10708 10710 10710 10712 10713 10715 10716 10716 10717 10718 10719 10719 10718 10718 10718 10719 10720 10722 10722 10723 10723 10723 10723 10722 10721 10719 10717 10715 10715 10714 10714 10712 10712 10711
10680 10684 10689 10693 10696 10698 10700 10701 10703 10705 10706 10707 10709 10710 10712 10713 10713 10714 10715 10715 10714 10714 10714 10714 10715 10717 10718 10718 10719 10720 10720 10719 10718 10716 10714 10712 10711 10711 10710 10709 10709 10708
10675 10679 10683 10688 10691 10692 10694 10696 10698 10700 10701 10702 10704 10706 10707 10709 10710 10710 10711 10711 10710 10710 10710 10709 10711 10712 10713 10714 10715 10716 10716 10716 10715 10713 10711 10709 10709 10708 10706 10706 10705 10705
10669 10674 10678 10682 10685 10686 10688 10690 10692 10695 10695 10697 10700 10702 10704 10705 10705 10706 10707 10707 10706 10706 10705 10705 10706 10707 10708 10709 10710 10711 10712 10712 10711 10710 10708 10706 10706 10705 10703 10702 10702 10702
10663 10668 10672 10676 10679 10681 10682 10685 10688 10689 10690 10692 10696 10698 10699 10700 10701 10702 10703 10702 10702 10702 10701 10700 10701 10703 10703 10704 10705 10706 10707 10707 10707 10706 10704 10703 10703 10702 10700 10699 10699 10699
10656 10661 10666 10670 10673 10675 10678 10680 10683 10684 10685 10688 10691 10693 10694 10695 10696 10697 10698 10698 10697 10697 10697 10696 10697 10697 10698 10699 10700 10701 10702 10702 10702 10701 10700 10700 10699 10698 10696 10695 10695 10695
10649 10655 10660 10664 10668 10670 10673 10675 10677 10678 10680 10684 10687 10689 10690 10691 10692 10693 10693 10692 10693 10693 10692 10692 10692 10692 10693 10695 10695 10696 10696 10697 10696 10695 10695 10695 10695 10693 10692 10692 10691 10691
10642 10648 10653 10658 10662 10665 10667 10669 10671 10673 10676 10679 10682 10684 10686 10687 10687 10687 10687 10687 10688 10688 10688 10687 10687 10688 10689 10690 10691 10691 10691 10692 10691 10690 10690 10691 10691 10689 10688 10688 10687 10687
10635 10642 10646 10651 10656 10659 10662 10663 10665 10668 10671 10675 10678 10680 10681 10682 10682 10681 10681 10682 10683 10683 10683 10683 10683 10684 10685 10686 10687 10687 10687 10687 10686 10685 10685 10686 10686 10685 10684 10684 10684 10683
10629 10635 10640 10644 10649 10653 10656 10658 10661 10665 10667 10670 10672 10674 10675 10676 10676 10675 10676 10677 10678 10678 10678 10679 10679 10679 10680 10682 10683 10683 10683 10682 10681 10681 10681 10681 10681 10680 10680 10680 10680 10680
10623 10628 10633 10638 10641 10645 10649 10653 10657 10661 10663 10665 10667 10668 10670 10670 10669 10669 10671 10672 10673 10674 10674 10675 10675 10675 10677 10679 10679 10678 10678 10678 10677 10677 10677 10676 10676 10676 10676 10676 10676 10676
10618 10622 10627 10631 10634 10638 10642 10647 10652 10655 10657 10659 10661 10662 10663 10663 10663 10665 10667 10668 10669 10670 10671 10671 10671 10672 10673 10674 10675 10674 10674 10673 10672 10673 10673 10671 10671 10671 10672 10672 10672 10672
10613 10617 10620 10624 10628 10633 10637 10641 10645 10648 10650 10651 10653 10655 10655 10656 10658 10661 10662 10663 10665 10666 10667 10668 10668 10668 10669 10670 10670 10670 10669 10668 10668 10669 10668 10667 10666 10667 10667 10668 10669 10669
10608 10611 10614 10618 10622 10628 10633 10635 10637 10639 10641 10643 10645 10647 10649 10651 10653 10655 10657 10660 10662 10663 10663 10663 10663 10663 10664 10665 10666 10665 10664 10664 10664 10664 10664 10663 10662 10663 10664 10664 10665 10665
10603 10606 10609 10613 10618 10622 10626 10628 10630 10631 10633 10636 10638 10641 10644 10646 10649 10651 10654 10656 10658 10658 10658 10658 10658 10658 10659 10661 10661 10659 10659 10659 10660 10659 10659 10658 10658 10659 10660 10660 10661 10661
10598 10601 10604 10608 10613 10617 10619 10621 10623 10625 10627 10630 10634 10637 10639 10642 10644 10647 10650 10652 10653 10653 10653 10653 10653 10654 10655 10656 10655 10655 10655 10655 10655 10654 10654 10653 10654 10654 10655 10656 10657 10657
10594 10597 10600 10604 10608 10611 10613 10615 10617 10620 10623 10627 10630 10633 10635 10638 10640 10643 10645 10647 10647 10648 10648 10648 10648 10650 10651 10651 10651 10650 10651 10651 10650 10649 10649 10649 10649 10650 10651 10651 10652 10652